Location: Cahas Mountain Overlook
(37.0833°N, 80.1000°W)
Time: 18:46:55
(UTC-05:00)

Vanguard 3 - Pass Details

Date: 05 December 2023
Orbit: 508 x 3239 km, 33.4° (Epoch: 23 February)

Event Time Altitude Azimuth Distance (km) Brightness Sun altitude
Rises 22:24:48 0° 248° (WSW) 6,342 12.0 -62.8°
Reaches altitude 10° 22:29:41 10° 246° (WSW) 4,929 11.2 -63.7°
Enters shadow 22:31:58 16° 244° (WSW) 4,240 10.8 -64.1°
